This is the latest recevied weather packets stored in our database for station/object DH1FR-13. If no packets are shown the sender has not sent any weather packets the latest 10 day(s).
| Time | Temp. | Humidity | Pressure | Rain* | Wind** | Luminosity | Snow |
|---|---|---|---|---|---|---|---|
| 1788143401 | 15° C | 98% | 1015.8 hPa | 2.29 mm | 0 m/s | - | - |
| 1788142801 | 15° C | 98% | 1015.3 hPa | 2.29 mm | 0 m/s | - | - |
| 1788142200 | 15° C | 98% | 1015.8 hPa | 2.29 mm | 0 m/s | - | - |
| 1788141601 | 15° C | 97% | 1015.7 hPa | 2.29 mm | 0 m/s | - | - |
| 1788141001 | 15° C | 97% | 1015.7 hPa | 2.29 mm | 0 m/s | - | - |
| 1788140400 | 15° C | 97% | 1015.7 hPa | 2.03 mm | 0 m/s | - | - |
| 1788139801 | 15° C | 96% | 1016.2 hPa | 2.03 mm | 0 m/s | - | - |
| 1788139201 | 15° C | 95% | 1016.6 hPa | 1.78 mm | 0 m/s | - | - |
| 1788138600 | 15° C | 94% | 1016.2 hPa | 0.76 mm | 0 m/s | - | - |
| 1788138001 | 15° C | 94% | 1016.2 hPa | 0.51 mm | 0 m/s | - | - |
| 1788137400 | 15° C | 94% | 1016.4 hPa | 0 mm | 0 m/s | - | - |
| 1788136801 | 15° C | 94% | 1016.4 hPa | 0 mm | 0 m/s | - | - |
| 1788136201 | 14.44° C | 95% | 1016.3 hPa | 0 mm | 0 m/s | - | - |
| 1788135601 | 14.44° C | 95% | 1016 hPa | 0 mm | 0 m/s | - | - |
| 1788135001 | 13.89° C | 96% | 1015.9 hPa | 0 mm | 0 m/s | - | - |
| 1788134402 | 13.89° C | 96% | 1015.9 hPa | 0 mm | 0 m/s | - | - |
| 1788133801 | 13.89° C | 96% | 1016.1 hPa | 0 mm | 0 m/s | - | - |
| 1788133201 | 13.89° C | 96% | 1016 hPa | 0 mm | 0 m/s | - | - |
| 1788132601 | 13.89° C | 96% | 1016.1 hPa | 0 mm | 0 m/s | - | - |
| 1788132001 | 13.89° C | 96% | 1016.2 hPa | 0 mm | 0 m/s | - | - |
| 1788131401 | 13.89° C | 96% | 1016.3 hPa | 4.32 mm | 0 m/s | - | - |
| 1788130800 | 14.44° C | 96% | 1016.5 hPa | 4.32 mm | 0 m/s | - | - |
| 1788130201 | 13.89° C | 96% | 1016.3 hPa | 4.32 mm | 0 m/s | - | - |
| 1788129601 | 13.89° C | 96% | 1016.3 hPa | 4.32 mm | 0 m/s | - | - |
| 1788129000 | 13.89° C | 96% | 1016.6 hPa | 4.32 mm | 0 m/s | - | - |
* Rain latest hour (hover to see other rain measurements)
** Current wind speed in m/s (hover to see current wind gust speed)